Taloyoak, Nunavut

7:40 PM MDT on March 25, 2017 (GMT -0600)
Taloyoak

Weather History for CYYH - April, 2014

Change the Weather History Date:

Monday, April 14, 2014

  Actual Average Record
Temperature  
Mean Temperature -11 °F -  
Max Temperature 0 °F 10 °F 14 °F (2005)
Min Temperature -22 °F -1 °F -27 °F (2003)
Degree Days  
Heating Degree Days 76    
Moisture  
Dew Point -19 °F    
Average Humidity 72    
Maximum Humidity 77    
Minimum Humidity 57    
Precipitation  
Precipitation 0.00 in - - ()
Sea Level Pressure  
Sea Level Pressure 30.21 in    
Wind  
Wind Speed 4 mph ()    
Max Wind Speed 8 mph    
Max Gust Speed -    
Visibility 14.4 miles    
Events Snow    
Averages and records for this station are not official NWS values.
T = Trace of Precipitation, MM = Missing Value Source: Averaged Metar Reports

Daily Weather History Graph

Daily Weather History Graph

Search for Another Location

Airport or City:

Trip Planner

Search our weather history database for the weather conditions in past years. The results will help you decide how hot, cold, wet, or windy it might be!

Date:

Astronomy

Apr. 14, 2014 Rise Set
Actual Time 5:17 AM CDT 9:14 PM CDT
Civil Twilight 4:00 AM CDT 10:33 PM CDT
Nautical Twilight 1:47 AM CDT 12:41 AM CDT
Astronomical Twilight Sun does not rise Sun does not rise
Moon 8:47 PM CDT (4/14) 5:17 AM CDT (4/14)
Length of Visible Light 18h 32m
Length of Day
15h 56m
Full, 100% of the Moon is Illuminated
Apr 14
Full
Apr 15
Full
Apr 22
Last Quarter
Apr 29
New
May 6
First Quarter

Hourly Weather History & Observations

Time (CDT) Temp. Windchill Dew Point Humidity Pressure Visibility Wind Dir Wind Speed Gust Speed Precip Events Conditions
12:00 AM -13.0 °F - -18.4 °F 77% 30.19 in 15.0 mi NW 2.3 mph - N/A   Partly Cloudy
1:00 AM -14 °F - -21 °F 57% 30.19 in 15 mi NNW 6.9 mph - -   Clear
1:00 AM -13.0 °F -30.0 °F -20.2 °F 70% 30.19 in 15.0 mi NNW 8.1 mph - N/A   Partly Cloudy
2:00 AM -11.2 °F - -18.4 °F 70% 30.19 in 15.0 mi NW 2.3 mph - N/A   Partly Cloudy
4:00 AM -20.2 °F -30.9 °F -25.6 °F 76% 30.19 in 15.0 mi SSW 3.5 mph - N/A   Mostly Cloudy
5:00 AM -20.2 °F -33.5 °F -25.6 °F 76% 30.19 in 15.0 mi SSW 4.6 mph - N/A   Partly Cloudy
6:00 AM -20.2 °F - -25.6 °F 76% 30.19 in 15.0 mi South 2.3 mph - N/A   Partly Cloudy
7:00 AM -20 °F - -26 °F 62% 30.21 in 15 mi West 2.3 mph - -   Scattered Clouds
7:00 AM -20.2 °F - -25.6 °F 76% 30.21 in 15.0 mi WSW 2.3 mph - N/A   Partly Cloudy
8:00 AM -20.2 °F -30.9 °F -25.6 °F 76% 30.20 in 15.0 mi SSW 3.5 mph - N/A   Partly Cloudy
9:00 AM -18.4 °F -33.4 °F -25.6 °F 70% 30.20 in 15.0 mi South 5.8 mph - N/A   Partly Cloudy
10:00 AM -14.8 °F -29.1 °F -23.8 °F 64% 30.19 in 15.0 mi South 5.8 mph - N/A   Partly Cloudy
11:00 AM -5.8 °F -19.9 °F -11.2 °F 77% 30.19 in 15.0 mi South 6.9 mph - N/A   Partly Cloudy
12:00 PM -13.0 °F -28.6 °F -22.0 °F 64% 30.19 in 15.0 mi South 6.9 mph - N/A   Partly Cloudy
1:00 PM -11 °F - -18 °F 57% 30.18 in 15 mi South 5.8 mph - -   Scattered Clouds
1:00 PM -11.2 °F -24.8 °F -18.4 °F 70% 30.18 in 15.0 mi South 5.8 mph - N/A   Partly Cloudy
2:00 PM -9.4 °F -22.7 °F -16.6 °F 71% 30.18 in 15.0 mi South 5.8 mph - N/A   Partly Cloudy
2:24 PM - - - N/A% - 6.0 mi SSE 4.6 mph - N/A   Unknown
3:00 PM -9.4 °F -18.6 °F -14.8 °F 77% 30.19 in 6.0 mi South 3.5 mph - N/A Snow Light Snow
3:36 PM - - - N/A% - 15.0 mi South 3.5 mph - N/A   Scattered Clouds
4:00 PM -7.6 °F -16.5 °F -13.0 °F 77% 30.20 in 15.0 mi SE 3.5 mph - N/A   Scattered Clouds
5:00 PM -5.8 °F - -11.2 °F 77% 30.20 in 15.0 mi Calm Calm - N/A   Scattered Clouds
6:00 PM -7.6 °F -16.5 °F -13.0 °F 77% 30.22 in 15.0 mi SSE 3.5 mph - N/A   Partly Cloudy
7:00 PM -8 °F - -13 °F 68% 30.23 in 15 mi NNE 3.5 mph - -   Partly Cloudy
7:00 PM -7.6 °F - -13.0 °F 77% 30.23 in 15.0 mi ESE 2.3 mph - N/A   Partly Cloudy
8:00 PM -9.4 °F -22.7 °F -16.6 °F 71% 30.24 in 15.0 mi NNE 5.8 mph - N/A   Partly Cloudy
9:00 PM -11.2 °F - -16.6 °F 77% 30.25 in 15.0 mi NE 2.3 mph - N/A   Partly Cloudy
10:00 PM -14.8 °F -29.1 °F -20.2 °F 77% 30.26 in 15.0 mi North 5.8 mph - N/A   Scattered Clouds
11:00 PM -13.0 °F - -20.2 °F 70% 30.27 in 15.0 mi ESE 2.3 mph - N/A   Scattered Clouds